Back to catalog

THOR ABLESTAR DEB

AliveLEO
NORAD 262·DEBRIS·🇺🇸 United States

Launched Jun 29, 1961 from Cape Canaveral Space Force Station

Loading…

Next Passes (next 24 hours)

TLE

FreshSource: Space-Track

Epoch: Sep 9, 2026, 22:28 UTC

1 00262U 61015CJ  26252.93650757  .00000977  00000-0  21855-3 0  9999
2 00262  66.4608 190.0485 0054069  20.3201 340.0045 14.60461201370899

Track THOR ABLESTAR DEB in real time with AllMySat

Download on the App Store